FW9693 Weather Reports


time (UTC)temp
C
wind
direction
speed
KPH
gust
KPH
rain 1hr
cm
rain 24hr
cm
rain mn
cm
humidity
%
barometer
mb
20260510191523 29 22 38.6 49.9 0.00 0.00 0.00 33 1005.4
20260510190021 29 10 32.2 53.1 0.00 0.00 0.00 35 1005.6
20260510184519 28 10 45.1 57.9 0.00 0.00 0.00 36 1005.7
20260510183017 28 27 45.1 61.2 0.00 0.00 0.00 36 1005.6
20260510181541 28 18 45.1 62.8 0.00 0.00 0.00 37 1005.4
20260510180015 28 346 46.7 62.8 0.00 0.00 0.00 37 1005.5
20260510174514 28 31 40.2 61.2 0.00 0.00 0.00 36 1005.5
20260510173012 28 336 40.2 59.5 0.00 0.00 0.00 35 1005.3
20260510171511 28 335 46.7 59.5 0.00 0.00 0.00 31 1004.9
20260510170013 29 336 48.3 61.2 0.00 0.00 0.00 21 1004.7
20260510164512 29 326 45.1 57.9 0.00 0.00 0.00 20 1004.6
20260510163013 28 326 46.7 59.5 0.00 0.00 0.00 21 1004.7
20260510161510 27 312 43.5 57.9 0.00 0.00 0.00 22 1004.5
20260510160011 27 296 43.5 53.1 0.00 0.00 0.00 23 1004.3
20260510154510 27 315 43.5 54.7 0.00 0.00 0.00 23 1003.9
20260510153009 27 273 33.8 46.7 0.00 0.00 0.00 23 1003.8
20260510151508 27 288 25.7 40.2 0.00 0.00 0.00 23 1003.7
20260510150009 26 282 22.5 33.8 0.00 0.00 0.00 27 1003.7
20260510144510 25 234 4.8 12.9 0.00 0.00 0.00 38 1003.6
20260510143009 23 121 8.0 12.9 0.00 0.00 0.00 48 1003.4
20260510141508 23 97 8.0 14.5 0.00 0.00 0.00 52 1003.3
20260510140007 22 118 11.3 14.5 0.00 0.00 0.00 54 1003.0
20260510134506 21 115 8.0 11.3 0.00 0.00 0.00 58 1002.9
20260510133005 20 138 11.3 14.5 0.00 0.00 0.00 61 1002.6
20260510131505 19 120 12.9 19.3 0.00 0.00 0.00 64 1002.5
20260510130006 18 131 14.5 20.9 0.00 0.00 0.00 66 1002.3
20260510124506 18 130 14.5 19.3 0.00 0.00 0.00 66 1002.2
20260510123006 18 135 12.9 17.7 0.00 0.00 0.00 66 1002.0
20260510121504 18 123 14.5 19.3 0.00 0.00 0.00 64 1001.7
20260510120001 18 123 16.1 19.3 0.00 0.00 0.00 62 1001.6
20260510114503 18 121 12.9 16.1 0.00 0.00 0.00 60 1001.5
20260510113103 18 115 12.9 16.1 0.00 0.00 0.00 59 1001.6
20260510113001 18 117 12.9 16.1 0.00 0.00 0.00 59 1001.5
20260510111602 18 119 14.5 17.7 0.00 0.00 0.00 58 1001.5
20260510110058 18 121 16.1 20.9 0.00 0.00 0.00 56 1001.4
20260510104556 19 124 16.1 19.3 0.00 0.00 0.00 53 1001.3
20260510103054 19 115 14.5 19.3 0.00 0.00 0.00 51 1001.2
20260510101559 19 120 16.1 19.3 0.00 0.00 0.00 51 1001.2
20260510100125 19 117 17.7 22.5 0.00 0.00 0.00 49 1001.1
20260510094557 19 120 14.5 17.7 0.00 0.00 0.00 46 1001.2
20260510093054 19 121 14.5 19.3 0.00 0.00 0.00 45 1001.0
20260510091554 20 128 16.1 25.7 0.00 0.00 0.00 41 1000.8
20260510090047 20 134 14.5 20.9 0.00 0.00 0.00 40 1001.0
20260510084544 20 135 16.1 20.9 0.00 0.00 0.00 39 1001.1
20260510083046 20 139 16.1 22.5 0.00 0.00 0.00 38 1001.1
20260510081545 20 137 17.7 20.9 0.00 0.00 0.00 37 1001.3
20260510080040 21 129 16.1 19.3 0.00 0.00 0.00 35 1001.5
20260510074539 21 139 16.1 20.9 0.00 0.00 0.00 33 1001.6
20260510073033 22 137 17.7 22.5 0.00 0.00 0.00 31 1001.6
20260510071538 23 150 19.3 27.4 0.00 0.00 0.00 30 1001.6
20260510070027 23 155 20.9 27.4 0.00 0.00 0.00 30 1001.6
20260510064523 23 155 19.3 27.4 0.00 0.00 0.00 28 1001.8
20260510063024 24 165 24.1 29.0 0.00 0.00 0.00 27 1001.7
20260510061534 25 182 24.1 32.2 0.00 0.00 0.00 27 1001.8
20260510060016 25 169 27.4 37.0 0.00 0.00 0.00 26 1001.8
20260510054513 26 167 30.6 41.8 0.00 0.00 0.00 25 1001.8
20260510053010 26 167 33.8 41.8 0.00 0.00 0.00 24 1001.8
20260510051508 26 170 30.6 38.6 0.00 0.00 0.00 24 1001.8
20260510050006 26 169 29.0 37.0 0.00 0.00 0.00 23 1001.9
20260510044504 27 165 35.4 41.8 0.00 0.00 0.00 23 1001.9
20260510043001 27 162 32.2 43.5 0.00 0.00 0.00 22 1001.8
20260510041559 27 156 30.6 38.6 0.00 0.00 0.00 22 1001.8
20260510034605 27 154 27.4 33.8 0.00 0.00 0.00 20 1001.5
20260510033113 28 142 25.7 35.4 0.00 0.00 0.00 19 1001.4
20260510031552 28 146 25.7 35.4 0.00 0.00 0.00 17 1001.3
20260510030051 29 157 25.7 33.8 0.00 0.00 0.00 15 1001.1
20260510024555 30 144 25.7 32.2 0.00 0.00 0.00 14 1001.0
20260510023046 30 149 20.9 24.1 0.00 0.00 0.00 13 1000.8
20260510021544 30 144 17.7 20.9 0.00 0.00 0.00 13 1000.6
20260510020046 31 147 16.1 19.3 0.00 0.00 0.00 12 1000.5
20260510014543 31 146 16.1 22.5 0.00 0.00 0.00 12 1000.3
20260510013042 32 144 16.1 24.1 0.00 0.00 0.00 11 1000.1
20260510011551 33 146 14.5 22.5 0.00 0.00 0.00 9 1000.1
20260510010043 33 173 12.9 19.3 0.00 0.00 0.00 9 1000.1
20260510004545 33 153 17.7 30.6 0.00 0.00 0.00 9 1000.1
20260510003100 33 148 14.5 25.7 0.00 0.00 0.00 9 1000.1
20260510001542 33 153 20.9 27.4 0.00 0.00 0.00 9 1000.2
20260510000046 33 146 19.3 27.4 0.00 0.00 0.00 10 1000.2
20260509234558 34 117 6.4 14.5 0.00 0.00 0.00 9 1000.4
20260509233041 34 26 1.6 9.7 0.00 0.00 0.00 8 1000.5
20260509231548 33 219 14.5 19.3 0.00 0.00 0.00 9 1000.7
20260509230034 33 200 11.3 29.0 0.00 0.00 0.00 9 1000.8
20260509224532 34 137 6.4 14.5 0.00 0.00 0.00 9 1000.9
20260509223029 34 243 4.8 19.3 0.00 0.00 0.00 9 1001.1
20260509221526 34 214 9.7 20.9 0.00 0.00 0.00 10 1001.2
20260509220026 33 86 11.3 17.7 0.00 0.00 0.00 9 1001.3
20260509214522 33 169 19.3 27.4 0.00 0.00 0.00 10 1001.6
20260509213020 33 201 11.3 20.9 0.00 0.00 0.00 9 1001.8
20260509211516 33 170 20.9 29.0 0.00 0.00 0.00 10 1002.1
20260509210021 33 178 20.9 32.2 0.00 0.00 0.00 9 1002.3
20260509204510 33 205 9.7 25.7 0.00 0.00 0.00 10 1002.6
20260509203009 32 188 12.9 27.4 0.00 0.00 0.00 10 1003.0
20260509201508 32 247 4.8 22.5 0.00 0.00 0.00 11 1003.4
20260509200007 32 158 24.1 30.6 0.00 0.00 0.00 11 1003.5
20260509194600 32 157 27.4 32.2 0.00 0.00 0.00 11 1003.6
20260509194502 32 173 19.3 37.0 0.00 0.00 0.00 11 1003.6
20260509193057 32 153 4.8 22.5 0.00 0.00 0.00 11 1003.9